TimeEDT,TemperatureF,Dew PointF,Humidity,Sea Level PressureIn,VisibilityMPH,Wind Direction,Wind SpeedMPH,Gust SpeedMPH,PrecipitationIn,Events,Conditions,WindDirDegrees,DateUTC
12:54 AM,79.0,73.9,84,30.28,10.0,WSW,6.9,-,N/A,,Clear,240,2013-07-15 04:54:00
1:54 AM,77.0,73.0,88,30.28,10.0,WSW,5.8,-,N/A,,Clear,240,2013-07-15 05:54:00
2:54 AM,77.0,72.0,84,30.28,10.0,WSW,8.1,-,N/A,,Clear,250,2013-07-15 06:54:00
3:54 AM,77.0,70.0,79,30.27,10.0,West,8.1,-,N/A,,Clear,280,2013-07-15 07:54:00
4:54 AM,75.0,70.0,84,30.28,10.0,West,4.6,-,N/A,,Clear,260,2013-07-15 08:54:00
5:54 AM,73.9,70.0,87,30.28,10.0,WSW,4.6,-,N/A,,Clear,240,2013-07-15 09:54:00
6:54 AM,77.0,71.1,82,30.29,10.0,West,3.5,-,N/A,,Clear,260,2013-07-15 10:54:00
7:54 AM,79.0,72.0,79,30.30,10.0,West,6.9,-,N/A,,Clear,260,2013-07-15 11:54:00
8:54 AM,84.0,73.0,69,30.29,10.0,West,6.9,-,N/A,,Clear,280,2013-07-15 12:54:00
9:54 AM,86.0,72.0,63,30.27,10.0,West,6.9,-,N/A,,Clear,280,2013-07-15 13:54:00
10:54 AM,88.0,72.0,59,30.26,10.0,NW,8.1,-,N/A,,Clear,310,2013-07-15 14:54:00
11:54 AM,90.0,71.1,54,30.25,8.0,West,6.9,-,N/A,,Clear,270,2013-07-15 15:54:00
12:54 PM,91.0,73.0,55,30.23,10.0,Variable,6.9,-,N/A,,Partly Cloudy,0,2013-07-15 16:54:00
1:54 PM,91.9,71.1,50,30.22,10.0,Variable,3.5,-,N/A,,Mostly Cloudy,0,2013-07-15 17:54:00
2:54 PM,91.9,72.0,52,30.20,10.0,West,11.5,-,N/A,,Mostly Cloudy,280,2013-07-15 18:54:00
3:54 PM,93.0,73.0,52,30.19,10.0,West,10.4,16.1,N/A,,Partly Cloudy,280,2013-07-15 19:54:00
4:54 PM,93.0,72.0,50,30.17,10.0,WNW,10.4,-,N/A,,Clear,290,2013-07-15 20:54:00
5:54 PM,93.0,72.0,50,30.16,10.0,West,9.2,-,N/A,,Scattered Clouds,280,2013-07-15 21:54:00
6:54 PM,91.0,71.1,52,30.16,10.0,WNW,9.2,-,N/A,,Partly Cloudy,290,2013-07-15 22:54:00
7:54 PM,89.1,70.0,53,30.16,10.0,WNW,5.8,-,N/A,,Clear,290,2013-07-15 23:54:00
8:54 PM,87.1,71.1,59,30.16,10.0,WNW,3.5,-,N/A,,Clear,300,2013-07-16 00:54:00
9:54 PM,86.0,72.0,63,30.18,10.0,NW,4.6,-,N/A,,Partly Cloudy,310,2013-07-16 01:54:00
10:54 PM,84.0,73.0,69,30.18,10.0,NW,4.6,-,N/A,,Clear,310,2013-07-16 02:54:00
11:54 PM,82.9,73.0,72,30.18,10.0,NW,4.6,-,N/A,,Clear,320,2013-07-16 03:54:00